This is the latest recevied weather packets stored in our database for station/object W2IRT. If no packets are shown the sender has not sent any weather packets the latest 1 day(s).
| Time | Temp. | Humidity | Pressure | Rain* | Wind** | Luminosity | Snow |
|---|---|---|---|---|---|---|---|
| 1778007915 | 28.89° C | 29% | 1007.3 hPa | 0 mm | 2.24 m/s, 225° | - | - |
| 1778007615 | 28.89° C | 29% | 1007.3 hPa | 0 mm | 1.34 m/s, 225° | - | - |
| 1778007315 | 28.89° C | 28% | 1007.4 hPa | 0 mm | 2.68 m/s, 225° | - | - |
| 1778007015 | 28.89° C | 28% | 1007.4 hPa | 0 mm | 1.34 m/s, 202° | - | - |
| 1778006715 | 28.89° C | 29% | 1007.6 hPa | 0 mm | 1.79 m/s, 202° | - | - |
| 1778006415 | 28.89° C | 29% | 1007.8 hPa | 0 mm | 2.24 m/s, 225° | - | - |
| 1778006116 | 28.89° C | 28% | 1007.9 hPa | 0 mm | 1.79 m/s, 225° | - | - |
| 1778005815 | 28.89° C | 30% | 1007.8 hPa | 0 mm | 2.24 m/s, 202° | - | - |
| 1778005515 | 28.89° C | 31% | 1007.8 hPa | 0 mm | 2.24 m/s, 202° | - | - |
| 1778005215 | 28.89° C | 31% | 1007.8 hPa | 0 mm | 1.79 m/s, 225° | - | - |
| 1778004915 | 28.89° C | 31% | 1007.8 hPa | 0 mm | 1.79 m/s, 202° | - | - |
| 1778004615 | 28.89° C | 30% | 1008 hPa | 0 mm | 1.79 m/s, 202° | - | - |
| 1778004315 | 28.89° C | 33% | 1007.9 hPa | 0 mm | 2.24 m/s, 202° | - | - |
| 1778004020 | 28.89° C | 32% | 1007.9 hPa | 0 mm | 1.79 m/s, 225° | - | - |
| 1778003715 | 28.89° C | 33% | 1008 hPa | 0 mm | 2.24 m/s, 225° | - | - |
| 1778003415 | 28.89° C | 32% | 1008.1 hPa | 0 mm | 2.68 m/s, 225° | - | - |
| 1778003116 | 28.89° C | 31% | 1008.1 hPa | 0 mm | 3.13 m/s, 225° | - | - |
| 1778002815 | 28.89° C | 32% | 1008.2 hPa | 0 mm | 1.34 m/s, 225° | - | - |
| 1778002515 | 28.33° C | 34% | 1008.2 hPa | 0 mm | 1.79 m/s, 225° | - | - |
| 1778002215 | 28.33° C | 32% | 1008.3 hPa | 0 mm | 2.68 m/s, 202° | - | - |
| 1778001915 | 28.33° C | 34% | 1008.4 hPa | 0 mm | 2.24 m/s, 225° | - | - |
| 1778001615 | 28.33° C | 33% | 1008.5 hPa | 0 mm | 2.24 m/s, 202° | - | - |
| 1778001315 | 28.33° C | 35% | 1008.6 hPa | 0 mm | 1.34 m/s, 202° | - | - |
| 1778001015 | 28.33° C | 34% | 1008.6 hPa | 0 mm | 1.79 m/s, 225° | - | - |
| 1778000715 | 28.33° C | 36% | 1008.6 hPa | 0 mm | 0.89 m/s, 225° | - | - |
* Rain latest hour (hover to see other rain measurements)
** Current wind speed in m/s (hover to see current wind gust speed)